Location: Catacaguana
(10.4120°N, 66.7591°W)
Time: 20:08:43
(UTC+00:00)

FengYun 1-2 T - Pass Details

Date: 28 January 2023
Orbit: 847 x 880 km, 98.7° (Epoch: 24 March)

Event Time Altitude Azimuth Distance (km) Brightness Sun altitude
Rises 09:46:01 0° 12° (NNE) 3,448 7.3 -15.9°
Reaches altitude 10° 09:48:23 10° 11° (NNE) 2,515 6.6 -15.4°
Maximum altitude 09:54:00 87° 282° (WNW) 881 4.2 -14.0°
Drops below altitude 10° 09:59:39 10° 194° (SSW) 2,529 6.7 -12.7°
Sets 10:02:02 0° 194° (SSW) 3,469 7.4 -12.1°
